TIME,DELAY(SENSOR),PRES,OXYGEN,RAWTEMP,T(OPTODE),TCPHASE,FLUOR,BETA(BETA700),BETA(BETA412),BETA(BETA440),CDOM,C(CSC),ED(ED411.90),ED(ED443.80),ED(ED489.40),ED(ED554.70),LU(LU412.20),LU(LU443.80),LU(LU489.40),LU(LU555.00),COMP,TILTX,TILTY,CHECK
1339624008,5807,835.4600219726562000,174.8441009521484400,464.7488098144531000,8.6191682815551760,38.9507217407226560,52,103,101,80,82,15133,2146957513,2147521051,2147286829,2147517330,2147091163,2146926464,2147710656,2147117385,559,-2,8,51007
1339627604,5805,961.0300292968750000,220.2756958007812500,524.8643798828125000,6.7559738159179690,37.1454811096191400,53,103,100,79,83,15120,2146959405,2147516964,2147292918,2147527981,2147091794,2146921554,2147721846,2147118226,2950,-2,8,24487
1339631204,5805,985.1199951171875000,233.8769073486328000,537.8469238281250000,6.3503298759460450,36.6394996643066400,53,106,101,79,82,15124,2146956297,2147519268,2147297673,2147527158,2147090688,2146916836,2147729709,2147116644,3546,-1,8,11935
1339634804,5808,993.2700195312500000,237.3377990722656200,538.7927856445312000,6.3207259178161620,36.4761009216308600,53,121,101,80,83,15120,2146959360,2147518701,2147297856,2147531666,2147089526,2146916626,2147728192,2147119341,254,-1,8,6266
1339638404,5806,999.4299926757812000,236.2890930175781200,538.5701293945312000,6.3277001380920410,36.5266609191894500,52,105,101,80,81,15117,2146957915,2147517083,2147297170,2147526509,2147089536,2146917476,2147727542,2147117046,3540,-1,8,29346
1339642004,5806,1006.2800292968750000,238.0243988037109400,539.4071044921875000,6.3014979362487790,36.4519691467285160,53,103,100,79,81,15118,2146957211,2147516306,2147296941,2147530980,2147090980,2146916361,2147726710,2147118747,2846,-1,8,32363
1339645604,5806,1013.5800170898438000,236.5316009521484400,539.1171875000000000,6.3105740547180180,36.5238304138183600,52,106,101,80,82,15115,2146956324,2147520658,2147295058,2147530916,2147090368,2146913124,2147727277,2147120246,390,-1,8,43106
1339649204,5805,1009.6799926757812000,239.2929992675781200,540.5383300781250000,6.2660789489746090,36.4064483642578100,52,103,101,79,82,15114,2146958829,2147522916,2147298651,2147527094,2147091620,2146918043,2147727424,2147118573,2862,-1,8,43019
1339652804,5804,1012.2700195312500000,238.3516998291015600,540.2498779296875000,6.2751097679138180,36.4496994018554700,52,104,100,80,81,15112,2146957330,2147520347,2147298377,2147525504,2147090486,2146920585,2147726107,2147117696,3004,-1,8,40197
1339656404,5807,1008.2600097656250000,239.1687927246093800,541.1777954101562000,6.2460541725158690,36.4245986938476560,52,105,100,78,83,15112,2146955245,2147524726,2147295862,2147528603,2147090212,2146921097,2147728758,2147119844,3496,-1,8,11972
1339660004,5805,1007.3200073242188000,240.3312988281250000,542.2819824218750000,6.2114620208740230,36.3845710754394500,53,103,99,82,82,15110,2146958912,2147517449,2147298203,2147533586,2147091702,2146924105,2147730889,2147116461,3323,-1,8,35192
1339663604,5806,1005.7899780273438000,242.7693939208984400,544.5178833007812000,6.1413989067077640,36.3013000488281250,52,107,101,81,81,15108,2146956699,2147520786,2147299419,2147531666,2147090450,2146917458,2147730633,2147120082,495,-1,8,7849
1339667204,5808,1000.3200073242188000,243.1970977783203000,545.7730712890625000,6.1020488739013670,36.3018302917480500,52,103,101,80,82,15106,2146956397,2147517056,2147299684,2147529115,2147090761,2146918692,2147727579,2147118710,208,-1,8,15861
1339670804,5808,1010.4600219726562000,243.7478027343750000,546.2689819335938000,6.0864958763122560,36.2833518981933600,52,103,102,79,82,15105,2146958016,2147520027,2147294875,2147528530,2147088256,2146918518,2147724470,2147116763,94,-1,8,57315
1339674404,5808,1009.0800170898438000,242.2100067138672000,545.4307250976562000,6.1127829551696780,36.3459281921386700,51,102,101,79,82,15103,2146956342,2147516507,2147298048,2147529572,2147091008,2146916571,2147728969,2147116608,459,-1,8,36952
1339678004,5804,1013.2100219726562000,241.6732025146484400,545.1879882812500000,6.1203942298889160,36.3691406250000000,53,101,101,78,83,15101,2146957321,2147518912,2147298989,2147530624,2147090944,2146915181,2147728091,2147116726,3506,-1,8,33932
1339681604,5807,1022.7299804687500000,242.0823974609375000,542.8088989257812000,6.1949582099914550,36.3049392700195300,52,106,103,80,82,15097,2146957513,2147515355,2147299062,2147526464,2147089755,2146919616,2147727652,2147118098,853,-1,8,45186
1339685204,5807,1021.7199707031250000,240.4506988525390600,541.8906250000000000,6.2237238883972170,36.3715591430664060,52,104,101,79,83,15099,2146957988,2147518445,2147294427,2147530678,2147091282,2146915136,2147723712,2147117513,3316,-1,8,62301
1339688804,5806,1018.4000244140625000,237.4080963134765600,539.8728027343750000,6.2869172096252440,36.4921989440918000,53,102,101,80,83,15099,2146954788,2147519442,2147295954,2147526409,2147091456,2146917174,2147728685,2147120914,296,-1,8,47977
1339692404,5808,1021.7500000000000000,238.3670959472656200,541.2277832031250000,6.2444839477539060,36.4665412902832000,53,103,101,79,82,15093,2146957165,2147519954,2147296274,2147526857,2147092571,2146915044,2147727341,2147118747,9,-1,8,62981
1339696004,5806,1016.4500122070312000,238.7633056640625000,541.3135986328125000,6.2417979240417480,36.4478416442871100,53,104,101,80,82,15085,2146952859,2147523849,2147298761,2147528374,2147092032,2146913673,2147724982,2147117275,442,-1,8,10406
1339699604,5804,1011.9699707031250000,239.8527069091797000,543.0241699218750000,6.1882109642028810,36.4229011535644500,53,104,100,80,82,15093,2146957348,2147519789,2147300214,2147529353,2147091712,2146918116,2147727597,2147118866,3278,-1,8,38709
1339703204,5807,1013.0800170898438000,243.9270019531250000,546.2495727539062000,6.0871047973632810,36.2736701965332000,53,104,101,80,83,15094,2146956717,2147519268,2147298980,2147530011,2147091181,2146919369,2147726482,2147120210,3325,-1,8,64463
1339706804,5756,1013.1300048828125000,244.8094940185547000,546.3493041992188000,6.0839791297912600,36.2320899963378900,52,104,99,81,82,15095,2146955684,2147517952,2147298825,2147531584,2147089490,2146919515,2147726390,2147120173,280,-1,8,40420
1339710404,5805,1010.5100097656250000,244.6369018554687500,547.2595825195312000,6.0554308891296390,36.2566299438476560,52,104,101,80,82,15091,2146958198,2147522614,2147300169,2147531108,2147091968,2146916096,2147724763,2147117430,113,-1,8,43255
1339714004,5807,1015.7100219726562000,245.2028045654297000,547.0637207031250000,6.0615749359130860,36.2244300842285160,53,106,100,80,82,15091,2146958765,2147524800,2147296073,2147528466,2147091501,2146913618,2147729069,2147117440,3252,-1,8,27640
1339717604,5806,1012.2000122070312000,244.4617004394531200,546.7114257812500000,6.0726218223571780,36.2555999755859400,52,106,101,78,82,15090,2146955501,2147520182,2147296996,2147525696,2147095314,2146913892,2147729929,2147118290,172,-1,8,32703
1339721204,5806,1017.1900024414062000,244.1885070800781200,546.8139038085938000,6.0694098472595215,36.2710609436035160,52,104,102,79,82,15090,2146959003,2147519314,2147300224,2147530358,2147093430,2146917403,2147729764,2147117659,3446,-1,8,62869
1339724804,5806,1025.6999511718750000,242.7290039062500000,544.0540161132812000,6.1559391021728520,36.2948493957519500,52,106,102,81,82,15090,2146955346,2147518930,2147298633,2147527680,2147090066,2146914761,2147727579,2147117723,156,-1,8,58850
1339728404,5806,1018.9799804687500000,243.2256927490234400,544.6447753906250000,6.1374192237854000,36.2806701660156250,52,107,100,80,82,15094,2146955264,2147520923,2147301595,2147530560,2147091172,2146915090,2147726582,2147116260,77,-1,8,31964
1339732004,5810,1021.3200073242188000,242.3177032470703000,544.6096191406250000,6.1385231018066410,36.3259887695312500,52,102,101,79,82,15090,2146955465,2147520018,2147302253,2147527122,2147092470,2146915666,2147722724,2147120548,39,-1,8,25112
1339735604,5806,1021.6500244140625000,241.0326995849609400,544.3640747070312000,6.1462187767028810,36.3866081237793000,52,102,100,80,83,15092,2146956653,2147517293,2147299035,2147529892,2147091062,2146918473,2147728365,2147117568,793,-1,8,20365
1339739204,5807,1023.5399780273438000,240.2451019287109400,543.3922729492188000,6.1766781806945800,36.4091911315918000,53,103,100,79,82,15078,2146957376,2147516562,2147299172,2147530596,2147090642,2146914358,2147724891,2147119387,225,-1,8,26460
1339742804,5805,1021.6300048828125000,240.6195983886718800,544.8209228515625000,6.1319031715393070,36.4154281616210940,51,104,101,80,82,15078,2146958345,2147516598,2147298843,2147533275,2147089819,2146915254,2147724205,2147120256,305,-1,8,12369
1339746404,5808,1020.8499755859375000,241.8990936279297000,545.8427124023438000,6.0998649597167970,36.3694496154785160,53,103,101,78,82,15074,2146954934,2147518537,2147297837,2147530971,2147089947,2146910966,2147723593,2147119213,18,-1,8,50753
1339750004,5808,1018.3200073242188000,242.4532928466797000,545.2866821289062000,6.1172962188720700,36.3307304382324200,51,101,101,80,81,15076,2146956416,2147521490,2147301942,2147525897,2147091346,2146920676,2147727332,2147118692,669,-1,8,30746
1339753604,5806,1019.2800292968750000,241.8805999755859400,545.9954223632812000,6.0950779914855960,36.3725891113281250,52,108,101,80,81,15073,2146955117,2147521472,2147298788,2147530560,2147089270,2146915995,2147726930,2147117494,264,-1,8,48893
1339757204,5807,1024.5400390625000000,242.6011047363281200,546.0197143554688000,6.0943160057067870,36.3366813659668000,53,105,101,80,81,15072,2146953965,2147518153,2147300662,2147528054,2147092032,2146916324,2147726043,2147117504,251,-1,8,44554
1339760804,5809,1015.5000000000000000,243.5787963867187500,547.2625122070312000,6.0553398132324220,36.3096504211425800,52,104,101,79,82,15072,2146954057,2147520384,2147296832,2147530358,2147088438,2146918994,2147727990,2147117732,1,-1,8,35877
1339764404,5804,1022.4199829101562000,244.2501983642578000,546.6798095703125000,6.0736141204833980,36.2656898498535160,53,105,102,80,82,15071,2146957348,2147519012,2147299584,2147533659,2147089974,2146916507,2147728438,2147119789,3422,-1,8,64676
1339767954,5807,1022.7700195312500000,242.8945007324218800,546.8666992187500000,6.0677528381347660,36.3373489379882800,53,104,101,80,82,15072,2146954925,2147522496,2147299428,2147530550,2147089929,2146914889,2147726573,2147118628,62,-1,8,8369
